When you browse on this site, cookies collect data to enhance your experience and personalize the content and advertising you see.
Visit our Privacy Policy to learn more. By continuing to use the site, you agree to this use of cookies and data.
  • In Hungary
  • List of Countries
  • For 7 days
  • Water Temperature
  • Weather Map
  • News
  • Weather Widgets
  • user-avatar
    Login

    Hourly Weather Serman

    Today, 22 October, Tuesday

    Time Temperature Precipitation Wind Pressure Humidity
    00:00 +11°C° 0 mm 6 mps 744 mmHg 84%
    01:00 +11°C° 0.1 mm 6 mps 743 mmHg 85%
    02:00 +11°C° 0.1 mm 6 mps 743 mmHg 85%
    03:00 +12°C° 0 mm 5 mps 744 mmHg 86%
    04:00 +12°C° 0.9 mm 4 mps 744 mmHg 89%
    05:00 +11°C° 0.9 mm 4 mps 744 mmHg 93%
    06:00 +11°C° 0.9 mm 3 mps 744 mmHg 96%
    07:00 +11°C° 0.1 mm 3 mps 744 mmHg 93%
    08:00 +11°C° 0.1 mm 3 mps 744 mmHg 91%
    09:00 +11°C° 0 mm 3 mps 745 mmHg 87%
    10:00 +11°C° 0 mm 3 mps 745 mmHg 81%
    11:00 +12°C° 0 mm 3 mps 745 mmHg 76%
    12:00 +12°C° 0 mm 3 mps 745 mmHg 71%
    13:00 +12°C° 0 mm 3 mps 745 mmHg 71%
    14:00 +12°C° 0 mm 3 mps 745 mmHg 71%
    15:00 +12°C° 0 mm 3 mps 746 mmHg 70%
    16:00 +11°C° 0 mm 3 mps 746 mmHg 73%
    17:00 +10°C° 0 mm 2 mps 746 mmHg 76%
    18:00 +10°C° 0 mm 2 mps 746 mmHg 78%
    19:00 +10°C° 0 mm 2 mps 746 mmHg 78%
    20:00 +11°C° 0 mm 1 mps 746 mmHg 78%
    21:00 +10°C° 0 mm 1 mps 746 mmHg 78%
    22:00 +10°C° 0 mm 1 mps 746 mmHg 77%
    23:00 +10°C° 0 mm 1 mps 746 mmHg 77%

    Tomorrow, 23 October, Wednesday

    Time Temperature Precipitation Wind Pressure Humidity
    00:00 +10°C° 0 mm 1 mps 746 mmHg 76%
    01:00 +10°C° 0 mm 1 mps 746 mmHg 76%
    02:00 +8°C° 0 mm 2 mps 746 mmHg 77%
    03:00 +8°C° 0 mm 2 mps 746 mmHg 78%
    04:00 +8°C° 0 mm 2 mps 745 mmHg 81%
    05:00 +7°C° 0 mm 3 mps 745 mmHg 85%
    06:00 +5°C° 0 mm 4 mps 744 mmHg 88%
    07:00 +6°C° 0 mm 4 mps 744 mmHg 86%
    08:00 +7°C° 0 mm 5 mps 744 mmHg 84%
    09:00 +8°C° 0 mm 5 mps 744 mmHg 82%
    10:00 +9°C° 0 mm 6 mps 743 mmHg 79%
    11:00 +10°C° 0 mm 6 mps 743 mmHg 77%
    12:00 +13°C° 0 mm 6 mps 743 mmHg 74%
    13:00 +11°C° 0 mm 6 mps 742 mmHg 78%
    14:00 +12°C° 0 mm 5 mps 742 mmHg 83%
    15:00 +12°C° 0 mm 5 mps 742 mmHg 87%
    16:00 +12°C° 0.3 mm 5 mps 742 mmHg 89%
    17:00 +10°C° 0.3 mm 5 mps 742 mmHg 92%
    18:00 +11°C° 0.3 mm 4 mps 741 mmHg 94%
    19:00 +11°C° 0.1 mm 4 mps 742 mmHg 94%
    20:00 +11°C° 0.1 mm 4 mps 742 mmHg 93%
    21:00 +11°C° 0.1 mm 4 mps 742 mmHg 93%
    22:00 +10°C° 0 mm 3 mps 742 mmHg 93%
    23:00 +10°C° 0 mm 3 mps 742 mmHg 93%

    Day after tomorrow, 24 October, Thursday

    Time Temperature Precipitation Wind Pressure Humidity
    00:00 +9°C° 0 mm 2 mps 742 mmHg 93%
    01:00 +8°C° 0 mm 2 mps 743 mmHg 91%
    02:00 +8°C° 0 mm 2 mps 743 mmHg 89%
    03:00 +8°C° 0 mm 2 mps 743 mmHg 86%
    04:00 +8°C° 0 mm 2 mps 743 mmHg 88%
    05:00 +7°C° 0 mm 2 mps 743 mmHg 89%
    06:00 +7°C° 0 mm 2 mps 743 mmHg 90%
    07:00 +8°C° 0 mm 2 mps 744 mmHg 88%
    08:00 +10°C° 0 mm 1 mps 744 mmHg 86%
    09:00 +10°C° 0 mm 1 mps 744 mmHg 85%
    10:00 +11°C° 0 mm 1 mps 744 mmHg 81%
    11:00 +12°C° 0 mm 1 mps 744 mmHg 77%
    12:00 +13°C° 0 mm 1 mps 745 mmHg 74%
    13:00 +12°C° 0 mm 1 mps 745 mmHg 76%
    14:00 +12°C° 0 mm 1 mps 745 mmHg 77%
    15:00 +12°C° 0 mm 1 mps 745 mmHg 79%
    16:00 +12°C° 0 mm 1 mps 745 mmHg 81%
    17:00 +11°C° 0 mm 1 mps 745 mmHg 83%
    18:00 +11°C° 0 mm 1 mps 745 mmHg 85%
    19:00 +10°C° 0 mm 1 mps 745 mmHg 85%
    20:00 +10°C° 0 mm 1 mps 745 mmHg 85%
    21:00 +10°C° 0 mm 1 mps 745 mmHg 85%
    22:00 +10°C° 0 mm 1 mps 745 mmHg 84%
    23:00 +9°C° 0 mm 0 mps 746 mmHg 84%

    25 October, Friday

    Time Temperature Precipitation Wind Pressure Humidity
    00:00 +9°C° 0 mm 0 mps 746 mmHg 83%
    01:00 +9°C° 0 mm 0 mps 746 mmHg 83%
    02:00 +10°C° 0 mm 1 mps 746 mmHg 84%
    03:00 +10°C° 0 mm 1 mps 746 mmHg 84%
    04:00 +9°C° 0 mm 1 mps 746 mmHg 85%
    05:00 +8°C° 0 mm 0 mps 746 mmHg 86%
    06:00 +8°C° 0 mm 0 mps 746 mmHg 87%
    07:00 +8°C° 0 mm 0 mps 746 mmHg 85%
    08:00 +9°C° 0 mm 0 mps 746 mmHg 82%
    09:00 +9°C° 0 mm 0 mps 747 mmHg 79%
    10:00 +10°C° 0 mm 0 mps 747 mmHg 77%
    11:00 +10°C° 0 mm 0 mps 747 mmHg 74%
    12:00 +11°C° 0 mm 0 mps 747 mmHg 72%
    13:00 +11°C° 0 mm 0 mps 747 mmHg 72%
    14:00 +11°C° 0 mm 0 mps 747 mmHg 73%
    15:00 +11°C° 0 mm 0 mps 747 mmHg 73%
    16:00 +10°C° 0 mm 0 mps 747 mmHg 78%
    17:00 +11°C° 0 mm 1 mps 747 mmHg 82%
    18:00 +10°C° 0 mm 1 mps 747 mmHg 87%
    19:00 +10°C° 0 mm 1 mps 747 mmHg 87%
    20:00 +10°C° 0 mm 1 mps 747 mmHg 87%
    21:00 +9°C° 0 mm 1 mps 747 mmHg 88%
    22:00 +9°C° 0 mm 1 mps 747 mmHg 88%
    23:00 +9°C° 0 mm 1 mps 747 mmHg 88%

    26 October, Saturday

    Time Temperature Precipitation Wind Pressure Humidity
    00:00 +8°C° 0 mm 2 mps 747 mmHg 88%
    01:00 +8°C° 0 mm 2 mps 747 mmHg 88%
    02:00 +8°C° 0 mm 2 mps 747 mmHg 88%
    03:00 +8°C° 0 mm 2 mps 747 mmHg 88%
    04:00 +7°C° 0 mm 2 mps 746 mmHg 89%
    05:00 +7°C° 0 mm 2 mps 746 mmHg 91%
    06:00 +7°C° 0 mm 2 mps 746 mmHg 92%
    07:00 +8°C° 0 mm 2 mps 746 mmHg 91%
    08:00 +8°C° 0 mm 2 mps 746 mmHg 91%
    09:00 +9°C° 0 mm 2 mps 746 mmHg 91%
    10:00 +10°C° 0 mm 3 mps 746 mmHg 88%
    11:00 +11°C° 0 mm 4 mps 746 mmHg 86%
    12:00 +12°C° 0 mm 5 mps 746 mmHg 84%
    13:00 +12°C° 0 mm 5 mps 745 mmHg 82%
    14:00 +12°C° 0 mm 5 mps 745 mmHg 79%
    15:00 +13°C° 0 mm 5 mps 745 mmHg 77%
    16:00 +12°C° 0 mm 4 mps 745 mmHg 80%
    17:00 +11°C° 0 mm 4 mps 745 mmHg 83%
    18:00 +11°C° 0 mm 3 mps 745 mmHg 87%
    19:00 +10°C° 0 mm 3 mps 744 mmHg 88%
    20:00 +10°C° 0 mm 3 mps 744 mmHg 89%
    21:00 +9°C° 0 mm 3 mps 744 mmHg 91%
    22:00 +8°C° 0 mm 4 mps 744 mmHg 90%
    23:00 +8°C° 0 mm 4 mps 744 mmHg 90%

    27 October, Sunday

    Time Temperature Precipitation Wind Pressure Humidity
    00:00 +7°C° 0 mm 4 mps 744 mmHg 90%
    01:00 +7°C° 0 mm 4 mps 744 mmHg 89%
    02:00 +7°C° 0 mm 4 mps 743 mmHg 89%
    03:00 +7°C° 0 mm 5 mps 743 mmHg 89%
    04:00 +7°C° 0 mm 5 mps 743 mmHg 89%
    05:00 +7°C° 0 mm 5 mps 743 mmHg 89%
    06:00 +7°C° 0 mm 5 mps 742 mmHg 89%
    07:00 +7°C° 0 mm 5 mps 742 mmHg 84%
    08:00 +8°C° 0 mm 6 mps 742 mmHg 79%
    09:00 +9°C° 0 mm 6 mps 742 mmHg 74%
    10:00 +11°C° 0 mm 7 mps 741 mmHg 69%
    11:00 +12°C° 0 mm 7 mps 741 mmHg 63%
    12:00 +14°C° 0 mm 7 mps 741 mmHg 58%
    13:00 +14°C° 0 mm 7 mps 740 mmHg 57%
    14:00 +12°C° 0 mm 7 mps 740 mmHg 57%
    15:00 +13°C° 0 mm 6 mps 739 mmHg 56%
    16:00 +11°C° 0 mm 6 mps 739 mmHg 58%
    17:00 +11°C° 0 mm 6 mps 738 mmHg 59%
    18:00 +10°C° 0 mm 6 mps 738 mmHg 61%
    19:00 +10°C° 0 mm 7 mps 737 mmHg 61%
    20:00 +10°C° 0 mm 7 mps 737 mmHg 61%
    21:00 +9°C° 0 mm 7 mps 736 mmHg 61%
    22:00 +9°C° 0 mm 7 mps 736 mmHg 61%
    23:00 +9°C° 0 mm 7 mps 735 mmHg 62%

    28 October, Monday

    Time Temperature Precipitation Wind Pressure Humidity
    00:00 +9°C° 0 mm 8 mps 735 mmHg 63%
    01:00 +9°C° 0 mm 8 mps 734 mmHg 64%
    02:00 +9°C° 0 mm 8 mps 733 mmHg 66%
    03:00 +9°C° 0 mm 8 mps 733 mmHg 67%
    04:00 +9°C° 0 mm 8 mps 732 mmHg 69%
    05:00 +9°C° 0 mm 8 mps 732 mmHg 71%
    06:00 +9°C° 0 mm 8 mps 731 mmHg 73%
    07:00 +9°C° 0.9 mm 7 mps 732 mmHg 79%
    08:00 +8°C° 0.9 mm 6 mps 732 mmHg 84%
    09:00 +8°C° 0.9 mm 5 mps 732 mmHg 90%
    10:00 +8°C° 0.5 mm 5 mps 732 mmHg 87%
    11:00 +8°C° 0.5 mm 4 mps 732 mmHg 83%
    12:00 +7°C° 0.5 mm 4 mps 733 mmHg 80%
    13:00 +8°C° 0 mm 3 mps 733 mmHg 75%
    14:00 +9°C° 0 mm 3 mps 733 mmHg 70%
    15:00 +9°C° 0 mm 3 mps 733 mmHg 65%
    16:00 +8°C° 0 mm 3 mps 733 mmHg 70%
    17:00 +6°C° 0 mm 2 mps 733 mmHg 74%
    18:00 +5°C° 0 mm 2 mps 733 mmHg 79%
    19:00 +5°C° 0 mm 2 mps 733 mmHg 80%
    20:00 +5°C° 0 mm 2 mps 733 mmHg 81%
    21:00 +4°C° 0 mm 2 mps 733 mmHg 82%
    22:00 +4°C° 0.1 mm 2 mps 733 mmHg 85%
    23:00 +4°C° 0.1 mm 2 mps 733 mmHg 87%
    Show more